,

(GMT )
Twenthe

Weather History for EHTW - March, 2014

Change the Weather History Date:

Monday, March 24, 2014

  Actual Average Record
Temperature  
Mean Temperature 38 °F -  
Max Temperature 50 °F 51 °F 68 °F (2003)
Min Temperature 27 °F 35 °F 21 °F (2013)
Degree Days  
Heating Degree Days 26    
Moisture  
Dew Point 32 °F    
Average Humidity 75    
Maximum Humidity 100    
Minimum Humidity 33    
Precipitation  
Precipitation 0.00 in - - ()
Sea Level Pressure  
Sea Level Pressure 29.90 in    
Wind  
Wind Speed 3 mph ()    
Max Wind Speed 9 mph    
Max Gust Speed -    
Visibility 9.6 miles    
Events Fog    
Averages and records for this station are not official NWS values.
T = Trace of Precipitation, MM = Missing Value Source: Averaged Metar Reports

Daily Weather History Graph

Daily Weather History Graph

Search for Another Location

Airport or City:

Trip Planner

Search our weather history database for the weather conditions in past years. The results will help you decide how hot, cold, wet, or windy it might be!

Date:

Astronomy

Mar. 24, 2014 Rise Set
Actual Time 6:26 AM CET 6:52 PM CET
Civil Twilight 5:52 AM CET 7:26 PM CET
Nautical Twilight 5:11 AM CET 8:07 PM CET
Astronomical Twilight 4:29 AM CET 8:49 PM CET
Moon 2:24 AM CET (3/24) 11:18 AM CET (3/24)
Length of Visible Light 13h 34m
Length of Day
12h 26m
Last Quarter, 46% of the Moon is Illuminated
Mar 24
Last Quarter
Mar 30
New
Apr 7
First Quarter
Apr 15
Full
Apr 22
Last Quarter

Hourly Weather History & Observations

Time (CET) Temp. Dew Point Humidity Pressure Visibility Wind Dir Wind Speed Gust Speed Precip Events Conditions
12:00 AM 32 °F 32 °F 99% 29.82 in 0 mi SSE 2.2 mph - - Fog Fog
1:00 AM 31 °F 31 °F 100% 29.83 in 0 mi South 2.2 mph - - Fog Fog
2:00 AM 32 °F 32 °F 100% 29.84 in 0 mi Calm Calm - - Fog Fog
3:00 AM 31 °F 31 °F 100% 29.84 in 0 mi South 2.2 mph - - Fog Fog
4:00 AM 28 °F 28 °F 100% 29.85 in 0 mi South 2.2 mph - - Fog Fog
5:00 AM 32 °F 31 °F 97% 29.87 in 0 mi WNW 2.2 mph - - Fog Fog
6:00 AM 32 °F 32 °F 98% 29.88 in 1 mi Calm Calm - - Fog Fog
7:00 AM 32 °F 32 °F 100% 29.90 in 0 mi WSW 2.2 mph - - Fog Fog
8:00 AM 34 °F 33 °F 96% 29.92 in 3 mi WSW 2.2 mph - - Fog Fog
9:00 AM 40 °F 39 °F 94% 29.93 in 8 mi NNW 2.2 mph - -   Overcast
10:00 AM 43 °F 37 °F 72% 29.94 in 17 mi NW 6.7 mph - -   Scattered Clouds
11:00 AM 45 °F 37 °F 64% 29.94 in 14 mi NNW 6.7 mph - -   Scattered Clouds
12:00 PM 47 °F 34 °F 48% 29.94 in 14 mi NW 6.7 mph - -   Scattered Clouds
1:00 PM 46 °F 30 °F 42% 29.93 in 16 mi North 6.7 mph - -   Partly Cloudy
2:00 PM 49 °F 31 °F 37% 29.92 in 16 mi NW 6.7 mph - -   Mostly Cloudy
3:00 PM 47 °F 31 °F 41% 29.91 in 17 mi NW 8.9 mph - -  
4:00 PM 50 °F 30 °F 33% 29.90 in 19 mi NW 8.9 mph - -  
5:00 PM 49 °F 30 °F 35% 29.90 in 19 mi NW 8.9 mph - -  
6:00 PM 47 °F 32 °F 44% 29.91 in 18 mi NW 6.7 mph - -   Scattered Clouds
7:00 PM 43 °F 32 °F 54% 29.92 in 22 mi North 4.5 mph - -   Partly Cloudy
8:00 PM 38 °F 32 °F 73% 29.93 in 19 mi NNW 2.2 mph - -  
9:00 PM 34 °F 31 °F 86% 29.94 in 17 mi Calm Calm - -  
10:00 PM 33 °F 31 °F 91% 29.94 in 13 mi Calm Calm - -  
11:00 PM 31 °F 31 °F 99% 29.94 in 9 mi Calm Calm - -